Regional Weather Roundup
Issued by NWS

Home | Current Version | Previous Version | Graphics & Text | Print | Product List | Glossary On
Versions: 1 2 3 4 5 6 7 8 9 10 11 12 13 14 15 16 17 18 19 20 21 22 23 24 25 26 27 28 29 30 31 32 33 34 35 36 37 38 39 40 41 42 43 44 45 46 47 48 49 50
000
ASUS43 KLOT 220506
RWRIL

ILLINOIS REGIONAL WEATHER ROUNDUP
NATIONAL WEATHER SERVICE CHICAGO/ROMEOVILLE IL
1100 PM CST FRI NOV 21 2014

NOTE: "FAIR" INDICATES FEW OR NO CLOUDS BELOW 12,000 FEET WITH NO
SIGNIFICANT WEATHER AND/OR OBSTRUCTIONS TO VISIBILITY.

* THESE STATIONS ARE NOT UNDER NWS QUALITY CONTROL. THEY ALSO MAY NOT
  REPORT WEATHER SUCH AS PRECIPITATION OR FOG.

ILZ001-002-007-009-015-016-024-220600-
NORTHWEST ILLINOIS

CITY           SKY/WX    TMP DP  RH WIND       PRES   REMARKS
MOLINE         CLOUDY    37  20  50 S10       30.11F WCI  30
STERLING*      CLOUDY    34  18  51 S3        30.15F
SAVANNA*       DRIZZLE   34  23  63 S9        30.13F WCI  26
$$

ILZ003-004-008-010-011-017-018-220600-
NORTH CENTRAL ILLINOIS

CITY           SKY/WX    TMP DP  RH WIND       PRES   REMARKS
ROCKFORD       CLOUDY    33  14  45 S16       30.17F WCI  23
FREEPORT*      CLOUDY    32  15  47 S13G20    30.15F WCI  23
ROCHELLE*      CLOUDY    32  17  53 S14       30.16F WCI  22
DE KALB*       CLOUDY    31  13  47 S14G21    30.16F WCI  21
PERU*          CLOUDY    36  17  46 S16       30.17F WCI  26
$$

ILZ005-006-012>014-019>023-220600-
NORTHEAST ILLINOIS

CITY           SKY/WX    TMP DP  RH WIND       PRES   REMARKS
CHICAGO-OHARE  CLOUDY    33  10  38 S14       30.18F WCI  23
CHICAGO-MIDWAY CLOUDY    35  11  36 S10       30.20F WCI  27
AURORA         CLOUDY    34  12  40 S12       30.18F WCI  25
LANSING*       CLOUDY    33  12  43 S15       30.22F WCI  22
JOLIET*        CLOUDY    33  12  41 S10G18    30.21F WCI  25
WAUKEGAN       CLOUDY    32   9  38 S13       30.16F WCI  22
DUPAGE AIRPORT CLOUDY    34  12  40 S16       30.17F WCI  24
KANKAKEE*      CLOUDY    33  15  45 S10G16    30.22F WCI  25
WHEELING       CLOUDY    33  10  38 S14       30.19F WCI  23
MORRIS*        DRIZZLE   34  18  51 S13       30.19F WCI  25
ROMEOVILLE*    CLOUDY    34  11  39 S16       30.19F WCI  23
NORTHERLY ISL    N/A     33  10  38 S13         N/A  WCI  24
$$

LMZ740>746-220600-
SOUTHERN LAKE MICHIGAN

STATION/POSITION SKY/WX   TEMP    WIND        PRES    VSBY  WAVE
                          AIR SEA DIR/SP/G                  HT/PER
                          (F)     (DEG/KT/KT) (MB)    (MI)  (FT/S)
SOUTHERN BUOY              37 43  190/ 25/ 31 1022.6F         7/ 6
WAUKEGAN HARBOR            33     190/ 19/ 23   N/A
HARRISON CRIB              33     190/ 26/ 30   N/A
BURNHAM HARBOR             34     200/ 11/ 17   N/A
CALUMET HARBOR             33     170/ 10/ 13 1021.7F
MICHIGAN CITY              31     140/ 15/ 21   N/A
$$

ILZ025>027-034>036-040-047-049-050-058-095>099-220600-
WEST-CENTRAL ILLINOIS

CITY           SKY/WX    TMP DP  RH WIND       PRES   REMARKS
QUINCY         CLOUDY    38  29  70 S8        30.13F WCI  32
GALESBURG*     CLOUDY    35  26  67 S15G24    30.14S WCI  26
MACOMB*        CLOUDY    34  30  83 S9        30.17F WCI  27
JACKSONVILLE*  CLOUDY    39  31  72 S10       30.18S WCI  32
PITTSFIELD*    CLOUDY    39  30  71 S9        30.17F WCI  33
$$

ILZ028>032-037-038-041>044-048-051>054-059>061-220600-
CENTRAL ILLINOIS

CITY           SKY/WX    TMP DP  RH WIND       PRES   REMARKS
PONTIAC        CLOUDY    37  19  48 S16G23    30.20F WCI  27
BLOOMINGTON    CLOUDY    35  21  57 S18       30.19F WCI  24
DECATUR        LGT RAIN  38  23  55 S13       30.22F WCI  30
PEORIA         FRZ RAIN  34  26  72 S16       30.18F WCI  24
LACON*         CLOUDY    37  17  45 S12G17    30.17F WCI  29
LINCOLN*       HVY RAIN  35  29  79 S12       30.21F WCI  27
SPRINGFIELD    CLOUDY    36  29  75 S16       30.19F WCI  26
TAYLORVILLE    CLOUDY    36  27  69 S16G24    30.21F WCI  26
$$

ILZ033-039-045-046-055>057-062-063-220600-
EAST-CENTRAL ILLINOIS

CITY           SKY/WX    TMP DP  RH WIND       PRES   REMARKS
CHAMPAIGN      CLOUDY    36  19  50 S14       30.23F WCI  27
DANVILLE*      CLOUDY    34  18  52 SE10      30.23F WCI  26
RANTOUL*       CLOUDY    36  19  50 SE13      30.22F WCI  27
MATTOON        CLOUDY    37  19  48 S16G25    30.24F WCI  28
PARIS*         CLOUDY    36  22  58 SE12      30.27F WCI  27
$$

ILZ079-100>102-220600-
SOUTHWEST ILLINOIS

CITY           SKY/WX    TMP DP  RH WIND       PRES   REMARKS
ALTON          CLOUDY    37  32  84 SE7       30.23F WCI  31
BELLEVILLE     CLOUDY    39  38  95 SE6       30.23F WCI  35
CAHOKIA*       CLOUDY    42  36  79 S8        30.22F
SPARTA*        CLOUDY    40  33  74 S8        30.26F
$$

ILZ064>066-069>071-074>076-080>082-084>086-088>090-092>094-220600-
SOUTH-CENTRAL ILLINOIS

CITY           SKY/WX    TMP DP  RH WIND       PRES   REMARKS
CARBONDALE     CLOUDY    41  33  73 E7        30.27F
CAIRO*         CLOUDY    44  37  78 E5        30.28F
EFFINGHAM*     CLOUDY    37  24  61 S10       30.26F WCI  29
MARION         CLOUDY    43  32  65 SE3       30.29S
MT. VERNON     CLOUDY    39  28  65 CALM      30.28F
CENTRALIA*     LGT RAIN  38  30  72 SE8       30.26F WCI  32
SALEM*         LGT RAIN  40  31  71 SE6       30.27S
METROPOLIS*    CLOUDY    46  29  51 E3        30.29S
$$

ILZ067-068-072-073-078-083-087-091-220600-
SOUTHEAST ILLINOIS

CITY           SKY/WX    TMP DP  RH WIND       PRES   REMARKS
LAWRENCEVILLE  CLOUDY    38  25  59 SE5       30.31F WCI  34
FLORA*         MOCLDY    37  30  75 S8        30.29F WCI  31
FAIRFIELD*     LGT RAIN  38  31  75 SE5       30.28F WCI  35
HARRISBURG*    LGT RAIN  40  32  70 SE3       30.31S
ROBINSON*      CLOUDY    38  21  52 S8        30.31F WCI  32
CARMI*         CLOUDY    41  33  73 SE7       30.30S
$$

ABBREVIATIONS USED IN REMARKS
   TC - TEMPERATURE IN CELSIUS
  WCI - WIND CHILL INDEX
   HX - HEAT INDEX
  VSB - VISIBILITY
$$




USA.gov is the U.S. government's official web portal to all federal, state and local government web resources and services.